Flag for Australia Weather past 2 weeks in Samford, Queensland, Australia

Now
50 °F

Sunny.


Feels Like: 47 °F
Forecast: 44 / 71 °F
Wind: 8 mph from Southwest

Location: Brisbane Airport M. O

Current Time: Jul 5, 2015 at 6:56:31 AM

Latest Report: Jul 5, 2015 at 6:00 AM


Visibility: 10 mi

Pressure: 30.15 "Hg

Humidity: 94%

Dew point: 48 °F

Location of SamfordLocation

Historic Weather in Samford — Graph

°F

Samford temperature yesterday

Maximum temperature yesterday: 68 °F (at 1:00 PM)
Minimum temperature yesterday: 48 °F (at 6:00 AM)
Average temperature yesterday: 58 °F

Past Weeks' High & Low Weather Summary

 TemperatureHumidityPressure
High73 °F (Jul 1, 1:30 PM)100% (Jun 25, 3:00 AM)30.45 "Hg (Jun 25, 3:00 AM)
Low43 °F (Jul 3, 2:00 AM)30% (Jul 2, 3:30 PM)30.07 "Hg (Jun 20, 5:00 AM)
Average60 °F78%30.24 "Hg
* Reported Jun 20 5:00 AM — Jul 5 5:30 AM, Samford, Weather by CustomWeather, © 2015

Note: Actual official high and low records may vary slightly from our data, if they occured in-between our weather recording intervals... More about our weather records

Advertising

Samford weather history for previous 24 hours

 ConditionsComfort  
Time TempWeatherWind HumidityBarometerVisibility
5:30 AM
Sun, Jul 5
50 °FClear.7 mph100%30.15 "Hg10 mi
5:00 AM50 °FClear.8 mph94%30.15 "Hg10 mi
4:30 AM50 °FClear.8 mph94%30.12 "Hg10 mi
4:00 AM50 °FClear.8 mph94%30.12 "Hg10 mi
3:30 AM52 °FClear.9 mph94%30.15 "Hg10 mi
3:00 AM50 °FClear.8 mph100%30.15 "Hg10 mi
2:30 AM50 °FFog.7 mph94%30.15 "HgN/A
2:00 AM50 °FFog.No wind100%30.15 "HgN/A
1:30 AM50 °FClear.5 mph100%30.15 "Hg10 mi
1:00 AM50 °FClear.5 mph94%30.18 "Hg10 mi
12:30 AM50 °FFog.5 mph100%30.18 "HgN/A
12:00 AM52 °FFog.1 mph94%30.18 "HgN/A
11:30 PM
Sat, Jul 4
52 °FFog.No wind100%30.18 "HgN/A
11:00 PM52 °FFog.No wind100%30.18 "HgN/A
10:30 PM54 °FClear.3 mph94%30.18 "Hg10 mi
10:00 PM55 °FClear.5 mph94%30.18 "Hg10 mi
9:30 PM55 °FClear.No wind88%30.18 "Hg10 mi
9:00 PM55 °FClear.3 mph88%30.18 "Hg10 mi
8:30 PM55 °FClear.2 mph94%30.18 "Hg10 mi
8:00 PM54 °FClear.1 mph94%30.18 "Hg10 mi
7:30 PM55 °FClear.1 mph94%30.15 "Hg10 mi
7:00 PM55 °FClear.3 mph94%30.15 "Hg10 mi
6:30 PM59 °FPassing clouds.No wind82%30.15 "HgN/A
6:00 PM59 °FPassing clouds.No wind82%30.12 "HgN/A
5:30 PM59 °FPassing clouds.5 mph82%30.12 "HgN/A
5:00 PM61 °FPassing clouds.5 mph77%30.12 "HgN/A
4:30 PM64 °FPassing clouds.6 mph68%30.12 "HgN/A
4:00 PM66 °FPassing clouds.6 mph60%30.12 "HgN/A
3:30 PM66 °FPassing clouds.7 mph60%30.12 "HgN/A
3:00 PM68 °FPassing clouds.8 mph56%30.12 "HgN/A
2:30 PM68 °FPassing clouds.8 mph56%30.12 "HgN/A
2:00 PM66 °FScattered clouds.6 mph56%30.12 "HgN/A
1:30 PM68 °FScattered clouds.3 mph53%30.15 "HgN/A
1:00 PM68 °FScattered clouds.6 mph53%30.15 "HgN/A
12:30 PM66 °FPartly sunny.6 mph56%30.15 "HgN/A
12:00 PM66 °FPartly sunny.6 mph52%30.18 "HgN/A
11:30 AM64 °FPartly sunny.8 mph56%30.18 "HgN/A
11:00 AM64 °FScattered clouds.9 mph56%30.21 "HgN/A
10:30 AM63 °FScattered clouds.10 mph56%30.21 "HgN/A
10:00 AM63 °FScattered clouds.13 mph56%30.24 "HgN/A
9:30 AM61 °FScattered clouds.14 mph55%30.24 "HgN/A
9:00 AM59 °FScattered clouds.13 mph59%30.24 "HgN/A
8:30 AM57 °FScattered clouds.10 mph67%30.24 "HgN/A
8:00 AM54 °FPartly sunny.9 mph72%30.21 "HgN/A
7:30 AM54 °FScattered clouds.9 mph72%30.21 "HgN/A
7:00 AM52 °FScattered clouds.8 mph77%30.21 "HgN/A
6:30 AM52 °FScattered clouds.10 mph77%30.18 "HgN/A
6:00 AM48 °FScattered clouds.9 mph87%30.18 "HgN/A
Weather by CustomWeather, © 2015

See weather overviewHow to use our weather pages